Location: Ladrillo (historical)
(32.8195°N, 117.2231°W)
Time: 03:40:35
(UTC+00:00)

Cosmos 1455 - Pass Details

Date: 29 October 2020
Orbit: 499 x 521 km, 82.5° (Epoch: 26 November)

Event Time Altitude Azimuth Distance (km) Brightness Sun altitude
Rises 13:33:05 0° 354° (N) 2,652 5.6 -7.3°
Reaches altitude 10° 13:35:14 10° 354° (N) 1,761 4.7 -6.8°
Maximum altitude 13:39:06 88° 75° (ENE) 526 2.3 -6.0°
Drops below altitude 10° 13:42:57 10° 174° (S) 1,746 5.1 -5.3°
Sets 13:45:04 0° 175° (S) 2,627 6.0 -4.8°
